Regional Weather Roundup
Issued by NWS

Home | Current Version | Previous Version | Text Only | Print | Product List | Glossary Off
Versions: 1 2 3 4 5 6 7 8 9 10 11 12 13 14 15 16 17 18 19 20 21 22 23 24 25 26 27 28 29 30 31 32 33 34 35 36 37 38 39 40 41 42 43 44 45 46 47 48 49 50

000
ASUS43 KMKX 231821
RWRWI

WISCONSIN REGIONAL WEATHER ROUNDUP
NATIONAL WEATHER SERVICE MILWAUKEE/SULLIVAN WI
100 PM CDT TUE SEP 23 2014

NOTE: "FAIR" INDICATES FEW OR NO CLOUDS BELOW 12,000 FEET WITH NO
SIGNIFICANT WEATHER AND/OR OBSTRUCTIONS TO VISIBILITY.

WIZ001-002-006>008-014>016-023>028-231900-
NORTHWEST WISCONSIN

CITY           SKY/WX    TMP DP  RH WIND       PRES   REMARKS
SUPERIOR ARPT  SUNNY     73  53  49 SW13G18   30.19F
6HR MIN TEMP:  42; 6HR MAX TEMP:  73;

ASHLAND        SUNNY     74  53  48 SW10      30.22F
6HR MIN TEMP:  43; 6HR MAX TEMP:  74;

HAYWARD        SUNNY     71  50  47 S9        30.24F
6HR MIN TEMP:  40; 6HR MAX TEMP:  71;

SIREN          SUNNY     72  50  45 S14       30.22F
6HR MIN TEMP:  45; 6HR MAX TEMP:  72;

CUMBERLAND     CLEAR     70  46  43 S10       30.24F
RICE LAKE      SUNNY     70  51  50 S12       30.26S
6HR MIN TEMP:  43; 6HR MAX TEMP:  70;

CHETEK         CLEAR     71  52  51 S8        30.25F
6HR MIN TEMP:  43; 6HR MAX TEMP:  71;

LADYSMITH      SUNNY     71  50  47 S9        30.28S
6HR MIN TEMP:  43; 6HR MAX TEMP:  71;

EAU CLAIRE     SUNNY     72  50  45 SW10      30.25F
6HR MIN TEMP:  42; 6HR MAX TEMP:  72;

MENOMONIE      CLEAR     73  52  47 S10       30.25F
6HR MIN TEMP:  45; 6HR MAX TEMP:  73;

NEW RICHMOND   MOSUNNY   72  48  43 SW12G20   30.23F
6HR MIN TEMP:  46; 6HR MAX TEMP:  72;

OSCEOLA        MOSUNNY   72  51  46 S13       30.25S
6HR MIN TEMP:  45; 6HR MAX TEMP:  72;

$$

WIZ003>005-009-010-017-018-231900-
NORTH CENTRAL WISCONSIN

CITY           SKY/WX    TMP DP  RH WIND       PRES   REMARKS
MANITOWISH WTR CLEAR     70  51  50 SW9       30.26S
6HR MIN TEMP:  38; 6HR MAX TEMP:  70;

ARBOR VITAE    SUNNY     72  53  50 SW5       30.27S
6HR MIN TEMP:  42; 6HR MAX TEMP:  72;

WOODRUFF       SUNNY     72  53  50 SW5       30.27S
6HR MIN TEMP:  42; 6HR MAX TEMP:  72;

RHINELANDER    SUNNY     70  50  49 W7        30.29S
6HR MIN TEMP:  39; 6HR MAX TEMP:  70;

EAGLE RIVER    SUNNY     70  48  46 W6        30.27S
6HR MIN TEMP:  39; 6HR MAX TEMP:  71;

LAND O LAKES   SUNNY     72  51  47 S5        30.28R
6HR MIN TEMP:  36; 6HR MAX TEMP:  72;

PHILLIPS       SUNNY     70  51  50 S7        30.26S
6HR MIN TEMP:  40; 6HR MAX TEMP:  70;

TOMAHAWK       SUNNY     71  49  45 CALM      30.28S
6HR MIN TEMP:  37; 6HR MAX TEMP:  71;

MEDFORD        SUNNY     69  51  51 SW7       30.28F
6HR MIN TEMP:  40; 6HR MAX TEMP:  69;

MERRILL        SUNNY     72  51  48 SW7       30.28S
6HR MIN TEMP:  37; 6HR MAX TEMP:  72;

$$

WIZ029-030-035-036-043>047-231900-
CENTRAL WISCONSIN

CITY           SKY/WX    TMP DP  RH WIND       PRES   REMARKS
WAUSAU         SUNNY     71  49  45 S9        30.27F
6HR MIN TEMP:  44; 6HR MAX TEMP:  71;

MOSINEE        SUNNY     70  52  52 W6        30.30S
MARSHFIELD     SUNNY     72  51  47 SW8       30.28F
6HR MIN TEMP:  44; 6HR MAX TEMP:  72;

STEVENS POINT  SUNNY     69  48  47 W7        30.29F
6HR MIN TEMP:  39; 6HR MAX TEMP:  69;

WAUPACA        SUNNY     75  52  44 SW6       30.29F
6HR MIN TEMP:  45; 6HR MAX TEMP:  75;

WAUTOMA        SUNNY     74  51  44 SW8       30.30S
6HR MIN TEMP:  40; 6HR MAX TEMP:  74;

WISC RAPIDS    SUNNY     71  51  49 VRB5      30.30F
6HR MIN TEMP:  41; 6HR MAX TEMP:  72;

CAMP DOUGLAS   MOSUNNY   72  54  53 SW8       30.29F
$$

WIZ011>013-019>022-031-037>040-048>050-231900-
NORTHEAST WISCONSIN

CITY           SKY/WX    TMP DP  RH WIND       PRES   REMARKS
ANTIGO         SUNNY     69  51  53 SW9       30.29S
6HR MIN TEMP:  40; 6HR MAX TEMP:  69;

SHAWANO        CLEAR     73  52  46 SW5       30.29S
6HR MIN TEMP:  47; 6HR MAX TEMP:  73;

OCONTO         CLEAR     73  55  52 SW7       30.27S
6HR MIN TEMP:  46; 6HR MAX TEMP:  73;

STURGEON BAY   SUNNY     70  54  56 SW9       30.29S
6HR MIN TEMP:  52; 6HR MAX TEMP:  70;

GREEN BAY      SUNNY     72  54  53 VRB6      30.29S
6HR MIN TEMP:  45; 6HR MAX TEMP:  72;

MANITOWOC      SUNNY     72  53  51 W9        30.30S
6HR MIN TEMP:  52; 6HR MAX TEMP:  72;

APPLETON       SUNNY     70  48  46 SW7       30.30F
CLINTONVILLE   SUNNY     72  52  49 SW7       30.28S
OSHKOSH        SUNNY     72  51  47 SW7       30.30S
6HR MIN TEMP:  46; 6HR MAX TEMP:  72;

$$

WIZ032>034-041-042-053>061-231900-
SOUTHWEST WISCONSIN

CITY           SKY/WX    TMP DP  RH WIND       PRES   REMARKS
LA CROSSE      MOSUNNY   73  50  44 S9        30.27F
6HR MIN TEMP:  50; 6HR MAX TEMP:  74;

SPARTA         SUNNY     72  49  45 S5        30.29F
6HR MIN TEMP:  38; 6HR MAX TEMP:  72;

VIROQUA        PTCLDY    70  50  50 SW10      30.30F
6HR MIN TEMP:  48; 6HR MAX TEMP:  70;

BOSCOBEL       SUNNY     73  49  42 SW10      30.30F
6HR MIN TEMP:  47; 6HR MAX TEMP:  73;

PRAIRIE DU CHI SUNNY     71  49  46 S8        30.29S
6HR MIN TEMP:  45; 6HR MAX TEMP:  71;

PLATTEVILLE    SUNNY     70  48  44 S9        30.32F
6HR MIN TEMP:  47; 6HR MAX TEMP:  70;

$$

WIZ056-057-062-063-064-067-068-231900-
SOUTH CENTRAL WISCONSIN

CITY           SKY/WX    TMP DP  RH WIND       PRES   REMARKS
REEDSBURG      CLEAR     70  51  51 S10       30.30S
6HR MIN TEMP:  41; 6HR MAX TEMP:  70;

BARABOO/DELLS  SUNNY     72  47  41 SW5       30.30F
6HR MIN TEMP:  46; 6HR MAX TEMP:  72;

LONE ROCK      SUNNY     75  50  41 S13       30.30F
6HR MIN TEMP:  46; 6HR MAX TEMP:  75;

MINERAL POINT  SUNNY     72  45  37 S10       30.32S
MADISON        MOSUNNY   71  49  45 S7        30.32S
6HR MIN TEMP:  45; 6HR MAX TEMP:  72;

MIDDLETON      CLEAR     73  45  36 S7        30.31F
6HR MIN TEMP:  43; 6HR MAX TEMP:  74;

WATERTOWN      SUNNY     72  51  47 SW6       30.31S
6HR MIN TEMP:  42; 6HR MAX TEMP:  72;

MONROE         SUNNY     70  48  46 SW10      30.32F
JANESVILLE     SUNNY     72  46  40 S5        30.32F
$$

WIZ051-052-058>065-066-070>072-231900-
SOUTHEAST WISCONSIN

CITY           SKY/WX    TMP DP  RH WIND       PRES   REMARKS
MILWAUKEE      MOSUNNY   72  49  44 W7        30.32S
6HR MIN TEMP:  54; 6HR MAX TEMP:  72;

WAUKESHA       SUNNY     70  48  46 W7        30.33F
MILWAUKEE/TIMM SUNNY     72  46  40 W8        30.33S
RACINE         SUNNY     72  51  47 SW5       30.34S
6HR MIN TEMP:  51; 6HR MAX TEMP:  72;

BURLINGTON     SUNNY     71  47  41 SW6       30.33S
6HR MIN TEMP:  40; 6HR MAX TEMP:  71;

KENOSHA        SUNNY     71  51  49 SW6       30.33F
6HR MIN TEMP:  47; 6HR MAX TEMP:  72;

FOND DU LAC    SUNNY     71  50  47 S6        30.30F
6HR MIN TEMP:  45; 6HR MAX TEMP:  72;

SHEBOYGAN      SUNNY     73  51  46 W8        30.30S
6HR MIN TEMP:  43; 6HR MAX TEMP:  73;

WEST BEND      SUNNY     72  46  40 SW8       30.31S
JUNEAU         SUNNY     70  52  51 SW8       30.32F
6HR MIN TEMP:  44; 6HR MAX TEMP:  70;

$$

LSZ147-162-231900-
LAKE SUPERIOR

STATION/POSITION TIME  TEMP    WIND        PRES    WAVE
                       AIR SEA DIR/SP/G            HT/PER
                 (UTC) (F)     (DEG/KT/KT) (MB)    (FT/S)
W MID LAKE BUOY  1750   52 49  230/  6/  6 1023.6R   1/ 3
DEVILS ISLAND    1800   61     240/  5/  7 1023.2F
PORT WING        1700   60      20/  3/  4 1023.4S
SAXON HARBOR     1700   73     230/  4/  7 1023.4F
$$

LMZ867-665-643>646-231900-
LAKE MICHIGAN

STATION/POSITION TIME  TEMP    WIND        PRES    WAVE


USA.gov is the U.S. government's official web portal to all federal, state and local government web resources and services.